Location: Casaglia
(44.0333°N, 11.5167°E)
Time: 02:34:18
(UTC+00:00)

USA 215 - Pass Details

Date: 07 June 2020
Orbit: 1098 x 1110 km, 123.0° (Epoch: 21 June)

Event Time Altitude Azimuth Distance (km) Brightness Sun altitude
Exits shadow 00:28:06 20° 149° (SSE) 2,320 4.6 -21.0°
Maximum altitude 00:32:48 61° 225° (SW) 1,240 3.2 -20.7°
Drops below altitude 10° 00:39:17 10° 305° (NW) 2,969 5.7 -20.3°
Sets 00:41:49 0° 309° (NW) 3,928 6.4 -20.1°
